Location: *
(34.8620°S, 39.3380°E)
Time: 22:51:58
(UTC+00:00)

Lacrosse 4 Rocket - Pass Details

Date: 08 December 2021
Orbit: 536 x 620 km, 68.0° (Epoch: 25 January)

Event Time Altitude Azimuth Distance (km) Brightness Sun altitude
Rises 18:03:40 0° 224° (SW) 2,721 6.7 -16.7°
Reaches altitude 10° 18:06:27 10° 244° (WSW) 1,814 5.1 -17.1°
Maximum altitude 18:09:07 17° 286° (WNW) 1,405 3.7 -17.5°
Drops below altitude 10° 18:11:47 10° 327° (NNW) 1,797 3.8 -17.8°
Enters shadow 18:12:24 - 334° (NNW) 1,972 3.9 -17.9°
